| time (UTC) | temp C | wind direction | speed KPH | gust KPH | rain 1hr cm | rain 24hr cm | rain mn cm | humidity % | barometer mb |
| 20260502130606 | 8 | 315 | 0.0 | 1.6 | 0.00 | 0.00 | 0.00 | 97 | 1020.9 |
| 20260502130104 | 8 | 290 | 0.0 | 0.0 | 0.00 | 0.00 | 0.00 | 99 | 1020.9 |
| 20260502123549 | 6 | 297 | 0.0 | 0.0 | 0.00 | 0.00 | 0.00 | 99 | 1020.7 |
| 20260502123046 | 5 | 85 | 0.0 | 0.0 | 0.00 | 0.00 | 0.00 | 99 | 1020.7 |
| 20260502122542 | 5 | 89 | 0.0 | 0.0 | 0.00 | 0.00 | 0.00 | 99 | 1020.5 |
| 20260502122040 | 5 | 89 | 0.0 | 0.0 | 0.00 | 0.00 | 0.00 | 99 | 1020.5 |
| 20260502121537 | 4 | 89 | 0.0 | 0.0 | 0.00 | 0.00 | 0.00 | 99 | 1020.4 |
| 20260502121035 | 4 | 263 | 0.0 | 0.0 | 0.00 | 0.00 | 0.00 | 99 | 1020.4 |
| 20260502120530 | 4 | 257 | 0.0 | 0.0 | 0.00 | 0.00 | 0.00 | 99 | 1020.1 |
| 20260502115526 | 3 | 290 | 0.0 | 0.0 | 0.00 | 0.00 | 0.00 | 99 | 1020.3 |
| 20260502115021 | 3 | 269 | 0.0 | 0.0 | 0.00 | 0.00 | 0.00 | 99 | 1020.2 |
| 20260502114518 | 3 | 279 | 0.0 | 0.0 | 0.00 | 0.00 | 0.00 | 99 | 1019.9 |
| 20260502114015 | 3 | 263 | 0.0 | 0.0 | 0.00 | 0.00 | 0.00 | 99 | 1019.8 |
| 20260502113512 | 3 | 263 | 0.0 | 0.0 | 0.00 | 0.00 | 0.00 | 99 | 1019.8 |
| 20260502113011 | 3 | 263 | 0.0 | 0.0 | 0.00 | 0.00 | 0.00 | 99 | 1020.0 |
| 20260502112508 | 3 | 277 | 0.0 | 0.0 | 0.00 | 0.00 | 0.00 | 98 | 1019.7 |
| 20260502112006 | 3 | 262 | 0.0 | 0.0 | 0.00 | 0.00 | 0.00 | 98 | 1020.0 |
| 20260502111503 | 3 | 225 | 0.0 | 0.0 | 0.00 | 0.00 | 0.00 | 98 | 1019.8 |
| 20260502111000 | 4 | 220 | 0.0 | 0.0 | 0.00 | 0.00 | 0.00 | 98 | 1019.6 |
| 20260502110458 | 4 | 233 | 0.0 | 0.0 | 0.00 | 0.00 | 0.00 | 98 | 1019.5 |
| 20260502105955 | 4 | 319 | 0.0 | 0.0 | 0.00 | 0.00 | 0.00 | 98 | 1019.5 |
| 20260502105453 | 3 | 273 | 0.0 | 0.0 | 0.00 | 0.00 | 0.00 | 98 | 1019.6 |
| 20260502104950 | 3 | 258 | 0.0 | 0.0 | 0.00 | 0.00 | 0.00 | 98 | 1019.6 |
| 20260502104447 | 4 | 258 | 0.0 | 0.0 | 0.00 | 0.00 | 0.00 | 98 | 1019.6 |
| 20260502103944 | 4 | 237 | 0.0 | 0.0 | 0.00 | 0.00 | 0.00 | 98 | 1019.4 |
| 20260502103442 | 4 | 242 | 0.0 | 0.0 | 0.00 | 0.00 | 0.00 | 98 | 1019.6 |
| 20260502102938 | 4 | 251 | 0.0 | 0.0 | 0.00 | 0.00 | 0.00 | 98 | 1019.4 |
| 20260502102436 | 4 | 262 | 0.0 | 0.0 | 0.00 | 0.00 | 0.00 | 98 | 1019.3 |
| 20260502101932 | 4 | 269 | 0.0 | 0.0 | 0.00 | 0.00 | 0.00 | 98 | 1019.2 |
| 20260502101431 | 4 | 210 | 1.6 | 1.6 | 0.00 | 0.00 | 0.00 | 98 | 1019.2 |
| 20260502100928 | 4 | 281 | 0.0 | 0.0 | 0.00 | 0.00 | 0.00 | 98 | 1018.9 |
| 20260502100428 | 4 | 7 | 1.6 | 1.6 | 0.00 | 0.00 | 0.00 | 98 | 1019.0 |
| 20260502091402 | 4 | 256 | 0.0 | 0.0 | 0.00 | 0.00 | 0.00 | 98 | 1018.7 |
| 20260502090859 | 4 | 221 | 0.0 | 0.0 | 0.00 | 0.00 | 0.00 | 98 | 1018.6 |
| 20260502090355 | 4 | 235 | 0.0 | 0.0 | 0.00 | 0.00 | 0.00 | 98 | 1018.7 |
| 20260502071250 | 4 | 224 | 0.0 | 0.0 | 0.00 | 0.00 | 0.00 | 96 | 1018.6 |
| 20260502070749 | 4 | 268 | 0.0 | 0.0 | 0.00 | 0.00 | 0.00 | 96 | 1018.6 |
| 20260502070246 | 4 | 289 | 0.0 | 0.0 | 0.00 | 0.00 | 0.00 | 96 | 1018.8 |
| 20260502065745 | 4 | 278 | 0.0 | 0.0 | 0.00 | 0.00 | 0.00 | 96 | 1018.7 |
| 20260502065242 | 4 | 278 | 0.0 | 0.0 | 0.00 | 0.00 | 0.00 | 96 | 1018.7 |
| 20260502064740 | 5 | 278 | 0.0 | 0.0 | 0.00 | 0.00 | 0.00 | 96 | 1018.7 |
| 20260502064238 | 5 | 278 | 0.0 | 0.0 | 0.00 | 0.00 | 0.00 | 96 | 1018.8 |
| 20260502063735 | 5 | 279 | 0.0 | 0.0 | 0.00 | 0.00 | 0.00 | 95 | 1018.7 |
| 20260502063233 | 5 | 279 | 0.0 | 0.0 | 0.00 | 0.00 | 0.00 | 95 | 1018.7 |
| 20260502062730 | 5 | 279 | 0.0 | 0.0 | 0.00 | 0.00 | 0.00 | 95 | 1018.8 |
| 20260502062227 | 5 | 279 | 0.0 | 0.0 | 0.00 | 0.00 | 0.00 | 95 | 1018.6 |
| 20260502061726 | 5 | 279 | 0.0 | 0.0 | 0.00 | 0.00 | 0.00 | 95 | 1018.7 |
| 20260502061223 | 5 | 279 | 0.0 | 0.0 | 0.00 | 0.00 | 0.00 | 95 | 1018.7 |
| 20260502060718 | 5 | 279 | 0.0 | 0.0 | 0.00 | 0.00 | 0.00 | 95 | 1018.4 |
| 20260502060214 | 5 | 279 | 0.0 | 0.0 | 0.00 | 0.00 | 0.00 | 94 | 1018.5 |
| 20260502055712 | 5 | 279 | 0.0 | 0.0 | 0.00 | 0.00 | 0.00 | 94 | 1018.6 |
| 20260502055210 | 5 | 279 | 0.0 | 0.0 | 0.00 | 0.00 | 0.00 | 94 | 1018.8 |
| 20260502054709 | 5 | 279 | 0.0 | 0.0 | 0.00 | 0.00 | 0.00 | 94 | 1018.7 |
| 20260502054206 | 5 | 279 | 0.0 | 0.0 | 0.00 | 0.00 | 0.00 | 94 | 1018.9 |
| 20260502053703 | 5 | 279 | 0.0 | 0.0 | 0.00 | 0.00 | 0.00 | 94 | 1018.7 |
| 20260502053200 | 5 | 279 | 0.0 | 0.0 | 0.00 | 0.00 | 0.00 | 93 | 1018.5 |
| 20260502052658 | 5 | 279 | 0.0 | 0.0 | 0.00 | 0.00 | 0.00 | 93 | 1018.7 |
| 20260502052156 | 5 | 279 | 0.0 | 0.0 | 0.00 | 0.00 | 0.00 | 93 | 1018.7 |
| 20260502051654 | 6 | 280 | 0.0 | 0.0 | 0.00 | 0.00 | 0.00 | 93 | 1018.7 |
| 20260502051152 | 6 | 276 | 0.0 | 0.0 | 0.00 | 0.00 | 0.00 | 93 | 1018.4 |
| 20260502050648 | 6 | 276 | 0.0 | 0.0 | 0.00 | 0.00 | 0.00 | 92 | 1018.8 |
| 20260502050145 | 6 | 279 | 0.0 | 0.0 | 0.00 | 0.00 | 0.00 | 92 | 1018.8 |
| 20260502045641 | 6 | 269 | 0.0 | 0.0 | 0.00 | 0.00 | 0.00 | 92 | 1018.5 |
| 20260502045139 | 6 | 269 | 0.0 | 0.0 | 0.00 | 0.00 | 0.00 | 92 | 1018.5 |
| 20260502044635 | 6 | 268 | 0.0 | 0.0 | 0.00 | 0.00 | 0.00 | 92 | 1018.6 |
| 20260502044132 | 6 | 269 | 0.0 | 0.0 | 0.00 | 0.00 | 0.00 | 92 | 1018.7 |
| 20260502043630 | 6 | 312 | 0.0 | 0.0 | 0.00 | 0.00 | 0.00 | 92 | 1018.9 |
| 20260502043127 | 6 | 312 | 0.0 | 0.0 | 0.00 | 0.00 | 0.00 | 92 | 1018.7 |
| 20260502042620 | 6 | 312 | 0.0 | 0.0 | 0.00 | 0.00 | 0.00 | 91 | 1018.8 |
| 20260502042118 | 6 | 312 | 0.0 | 0.0 | 0.00 | 0.00 | 0.00 | 91 | 1018.7 |
| 20260502041615 | 6 | 312 | 0.0 | 0.0 | 0.00 | 0.00 | 0.00 | 91 | 1018.7 |
| 20260502041112 | 6 | 312 | 0.0 | 0.0 | 0.00 | 0.00 | 0.00 | 90 | 1018.5 |
| 20260502040609 | 6 | 312 | 0.0 | 0.0 | 0.00 | 0.00 | 0.00 | 90 | 1018.7 |
| 20260502040106 | 6 | 312 | 0.0 | 0.0 | 0.00 | 0.00 | 0.00 | 89 | 1018.7 |
| 20260502035602 | 6 | 312 | 0.0 | 0.0 | 0.00 | 0.00 | 0.00 | 89 | 1018.6 |
| 20260502035059 | 6 | 312 | 0.0 | 0.0 | 0.00 | 0.00 | 0.00 | 88 | 1018.7 |
| 20260502034557 | 6 | 312 | 0.0 | 0.0 | 0.00 | 0.00 | 0.00 | 88 | 1018.6 |
| 20260502034055 | 7 | 312 | 0.0 | 0.0 | 0.00 | 0.00 | 0.00 | 88 | 1018.8 |
| 20260502033553 | 7 | 312 | 0.0 | 0.0 | 0.00 | 0.00 | 0.00 | 88 | 1018.7 |
| 20260502033051 | 7 | 312 | 0.0 | 0.0 | 0.00 | 0.00 | 0.00 | 87 | 1018.7 |
| 20260502032546 | 7 | 312 | 0.0 | 0.0 | 0.00 | 0.00 | 0.00 | 87 | 1018.8 |
| 20260502032043 | 7 | 312 | 0.0 | 0.0 | 0.00 | 0.00 | 0.00 | 86 | 1018.6 |
| 20260502031541 | 7 | 312 | 0.0 | 0.0 | 0.00 | 0.00 | 0.00 | 86 | 1018.7 |
| 20260502031039 | 7 | 312 | 0.0 | 0.0 | 0.00 | 0.00 | 0.00 | 85 | 1018.7 |
| 20260502030537 | 7 | 312 | 0.0 | 0.0 | 0.00 | 0.00 | 0.00 | 85 | 1018.7 |
| 20260502030035 | 7 | 312 | 0.0 | 0.0 | 0.00 | 0.00 | 0.00 | 84 | 1018.5 |
| 20260502025532 | 7 | 312 | 0.0 | 0.0 | 0.00 | 0.00 | 0.00 | 84 | 1018.7 |
| 20260502025030 | 8 | 312 | 0.0 | 0.0 | 0.00 | 0.00 | 0.00 | 83 | 1018.6 |
| 20260502024527 | 8 | 312 | 0.0 | 0.0 | 0.00 | 0.00 | 0.00 | 82 | 1018.7 |
| 20260502024025 | 8 | 312 | 0.0 | 0.0 | 0.00 | 0.00 | 0.00 | 82 | 1018.5 |
| 20260502023523 | 8 | 312 | 0.0 | 0.0 | 0.00 | 0.00 | 0.00 | 81 | 1018.5 |
| 20260502023020 | 8 | 312 | 0.0 | 0.0 | 0.00 | 0.00 | 0.00 | 79 | 1018.4 |
| 20260502022517 | 8 | 313 | 0.0 | 0.0 | 0.00 | 0.00 | 0.00 | 78 | 1018.5 |
| 20260502022015 | 8 | 313 | 0.0 | 0.0 | 0.00 | 0.00 | 0.00 | 78 | 1018.3 |
| 20260502021512 | 9 | 313 | 0.0 | 0.0 | 0.00 | 0.00 | 0.00 | 77 | 1018.3 |
| 20260502021008 | 9 | 313 | 0.0 | 0.0 | 0.00 | 0.00 | 0.00 | 76 | 1018.1 |
| 20260502020506 | 9 | 313 | 0.0 | 0.0 | 0.00 | 0.00 | 0.00 | 76 | 1018.2 |
| 20260502020002 | 9 | 313 | 0.0 | 0.0 | 0.00 | 0.00 | 0.00 | 75 | 1018.2 |
| 20260502015500 | 10 | 313 | 0.0 | 0.0 | 0.00 | 0.00 | 0.00 | 74 | 1018.2 |
| 20260502014957 | 10 | 313 | 0.0 | 0.0 | 0.00 | 0.00 | 0.00 | 73 | 1018.1 |
| 20260502014454 | 10 | 313 | 0.0 | 0.0 | 0.00 | 0.00 | 0.00 | 72 | 1018.1 |
| 20260502013950 | 10 | 313 | 0.0 | 0.0 | 0.00 | 0.00 | 0.00 | 71 | 1018.0 |
| 20260502013446 | 10 | 313 | 0.0 | 0.0 | 0.00 | 0.00 | 0.00 | 70 | 1018.0 |
| 20260502012942 | 11 | 313 | 0.0 | 0.0 | 0.00 | 0.00 | 0.00 | 69 | 1017.8 |
| 20260502012440 | 11 | 313 | 0.0 | 0.0 | 0.00 | 0.00 | 0.00 | 66 | 1017.8 |
| 20260502011937 | 11 | 313 | 0.0 | 0.0 | 0.00 | 0.00 | 0.00 | 66 | 1017.7 |
| 20260502011433 | 11 | 313 | 0.0 | 0.0 | 0.00 | 0.00 | 0.00 | 63 | 1017.7 |
| 20260502010930 | 12 | 313 | 0.0 | 0.0 | 0.00 | 0.00 | 0.00 | 62 | 1017.5 |
| 20260502010427 | 12 | 313 | 0.0 | 0.0 | 0.00 | 0.00 | 0.00 | 60 | 1017.5 |
| 20260502005923 | 12 | 313 | 0.0 | 0.0 | 0.00 | 0.00 | 0.00 | 57 | 1017.6 |
| 20260502005421 | 13 | 313 | 0.0 | 0.0 | 0.00 | 0.00 | 0.00 | 55 | 1017.3 |
| 20260502004919 | 14 | 314 | 0.0 | 0.0 | 0.00 | 0.00 | 0.00 | 52 | 1017.5 |
| 20260502004415 | 14 | 314 | 0.0 | 1.6 | 0.00 | 0.00 | 0.00 | 44 | 1017.2 |
| 20260502003913 | 14 | 314 | 0.0 | 1.6 | 0.00 | 0.00 | 0.00 | 46 | 1017.2 |
| 20260502003410 | 15 | 283 | 0.0 | 0.0 | 0.00 | 0.00 | 0.00 | 46 | 1017.2 |
| 20260502002906 | 15 | 283 | 0.0 | 0.0 | 0.00 | 0.00 | 0.00 | 44 | 1017.1 |
| 20260502002404 | 15 | 287 | 0.0 | 0.0 | 0.00 | 0.00 | 0.00 | 43 | 1017.0 |
| 20260502001901 | 15 | 269 | 0.0 | 0.0 | 0.00 | 0.00 | 0.00 | 43 | 1016.8 |
| 20260502001358 | 15 | 248 | 0.0 | 0.0 | 0.00 | 0.00 | 0.00 | 40 | 1016.9 |
| 20260502000855 | 16 | 282 | 0.0 | 0.0 | 0.00 | 0.00 | 0.00 | 42 | 1016.8 |
| 20260502000354 | 16 | 5 | 3.2 | 4.8 | 0.00 | 0.00 | 0.00 | 37 | 1016.6 |
| 20260501235849 | 16 | 79 | 0.0 | 1.6 | 0.00 | 0.00 | 0.00 | 38 | 1016.8 |
| 20260501235344 | 17 | 251 | 0.0 | 1.6 | 0.00 | 0.00 | 0.00 | 36 | 1016.7 |
| 20260501234840 | 17 | 247 | 0.0 | 0.0 | 0.00 | 0.00 | 0.00 | 38 | 1016.7 |
| 20260501234337 | 18 | 292 | 1.6 | 1.6 | 0.00 | 0.00 | 0.00 | 34 | 1016.6 |
| 20260501233836 | 18 | 282 | 0.0 | 0.0 | 0.00 | 0.00 | 0.00 | 34 | 1016.8 |
| 20260501233333 | 18 | 68 | 3.2 | 4.8 | 0.00 | 0.00 | 0.00 | 33 | 1016.7 |
| 20260501232828 | 18 | 347 | 6.4 | 8.0 | 0.00 | 0.00 | 0.00 | 32 | 1016.8 |
| 20260501232326 | 18 | 314 | 3.2 | 4.8 | 0.00 | 0.00 | 0.00 | 34 | 1016.7 |
| 20260501231823 | 18 | 295 | 6.4 | 8.0 | 0.00 | 0.00 | 0.00 | 34 | 1016.6 |
| 20260501231321 | 19 | 247 | 1.6 | 1.6 | 0.00 | 0.00 | 0.00 | 37 | 1016.8 |
| 20260501230819 | 18 | 287 | 0.0 | 1.6 | 0.00 | 0.00 | 0.00 | 34 | 1016.6 |
| 20260501230318 | 18 | 120 | 3.2 | 4.8 | 0.00 | 0.00 | 0.00 | 33 | 1016.8 |
| 20260501225815 | 18 | 46 | 3.2 | 4.8 | 0.00 | 0.00 | 0.00 | 35 | 1016.8 |
| 20260501225313 | 18 | 293 | 3.2 | 4.8 | 0.00 | 0.00 | 0.00 | 33 | 1016.8 |
| 20260501224809 | 19 | 272 | 0.0 | 1.6 | 0.00 | 0.00 | 0.00 | 36 | 1016.8 |
| 20260501224306 | 19 | 246 | 4.8 | 6.4 | 0.00 | 0.00 | 0.00 | 33 | 1016.8 |
| 20260501223802 | 19 | 247 | 3.2 | 4.8 | 0.00 | 0.00 | 0.00 | 33 | 1016.8 |
| 20260501223258 | 18 | 265 | 0.0 | 0.0 | 0.00 | 0.00 | 0.00 | 36 | 1016.8 |
| 20260501222754 | 20 | 281 | 4.8 | 6.4 | 0.00 | 0.00 | 0.00 | 35 | 1016.6 |
| 20260501222252 | 18 | 276 | 0.0 | 1.6 | 0.00 | 0.00 | 0.00 | 36 | 1016.7 |
| 20260501221749 | 19 | 296 | 11.3 | 12.9 | 0.00 | 0.00 | 0.00 | 30 | 1016.7 |
| 20260501221246 | 18 | 226 | 1.6 | 4.8 | 0.00 | 0.00 | 0.00 | 35 | 1016.6 |
| 20260501220744 | 18 | 36 | 8.0 | 11.3 | 0.00 | 0.00 | 0.00 | 31 | 1016.5 |
| 20260501220241 | 18 | 253 | 1.6 | 4.8 | 0.00 | 0.00 | 0.00 | 37 | 1016.5 |
| 20260501215738 | 18 | 272 | 3.2 | 6.4 | 0.00 | 0.00 | 0.00 | 30 | 1016.5 |
| 20260501215233 | 18 | 37 | 6.4 | 8.0 | 0.00 | 0.00 | 0.00 | 36 | 1016.5 |
| 20260501214728 | 19 | 123 | 4.8 | 8.0 | 0.00 | 0.00 | 0.00 | 32 | 1016.4 |
| 20260501214224 | 19 | 196 | 1.6 | 4.8 | 0.00 | 0.00 | 0.00 | 33 | 1016.5 |
| 20260501213721 | 18 | 302 | 3.2 | 4.8 | 0.00 | 0.00 | 0.00 | 34 | 1016.4 |
| 20260501213217 | 19 | 293 | 9.7 | 16.1 | 0.00 | 0.00 | 0.00 | 32 | 1016.6 |
| 20260501212713 | 19 | 241 | 1.6 | 4.8 | 0.00 | 0.00 | 0.00 | 30 | 1016.5 |
| 20260501212210 | 19 | 328 | 9.7 | 12.9 | 0.00 | 0.00 | 0.00 | 30 | 1016.6 |
| 20260501211707 | 19 | 319 | 4.8 | 8.0 | 0.00 | 0.00 | 0.00 | 32 | 1016.5 |
| 20260501211204 | 19 | 334 | 3.2 | 6.4 | 0.00 | 0.00 | 0.00 | 33 | 1016.8 |
| 20260501210701 | 19 | 279 | 4.8 | 6.4 | 0.00 | 0.00 | 0.00 | 33 | 1016.8 |
| 20260501210158 | 19 | 123 | 6.4 | 11.3 | 0.00 | 0.00 | 0.00 | 31 | 1016.9 |
| 20260501205654 | 19 | 132 | 3.2 | 4.8 | 0.00 | 0.00 | 0.00 | 37 | 1017.1 |
| 20260501205151 | 19 | 289 | 3.2 | 6.4 | 0.00 | 0.00 | 0.00 | 32 | 1017.2 |
| 20260501204648 | 19 | 273 | 8.0 | 11.3 | 0.00 | 0.00 | 0.00 | 32 | 1017.5 |
| 20260501204144 | 18 | 288 | 6.4 | 8.0 | 0.00 | 0.00 | 0.00 | 30 | 1017.7 |
| 20260501203641 | 19 | 250 | 3.2 | 6.4 | 0.00 | 0.00 | 0.00 | 35 | 1017.7 |
| 20260501203138 | 19 | 82 | 1.6 | 1.6 | 0.00 | 0.00 | 0.00 | 31 | 1017.7 |
| 20260501202635 | 19 | 317 | 6.4 | 8.0 | 0.00 | 0.00 | 0.00 | 29 | 1017.8 |
| 20260501202132 | 18 | 321 | 3.2 | 6.4 | 0.00 | 0.00 | 0.00 | 31 | 1017.9 |
| 20260501201629 | 20 | 137 | 6.4 | 6.4 | 0.00 | 0.00 | 0.00 | 28 | 1018.0 |
| 20260501201125 | 20 | 235 | 0.0 | 1.6 | 0.00 | 0.00 | 0.00 | 31 | 1018.1 |
| 20260501200622 | 19 | 270 | 1.6 | 1.6 | 0.00 | 0.00 | 0.00 | 35 | 1018.1 |
| 20260501200120 | 19 | 262 | 6.4 | 8.0 | 0.00 | 0.00 | 0.00 | 35 | 1018.4 |
| 20260501195617 | 19 | 283 | 6.4 | 8.0 | 0.00 | 0.00 | 0.00 | 30 | 1018.5 |
| 20260501195113 | 19 | 218 | 8.0 | 8.0 | 0.00 | 0.00 | 0.00 | 29 | 1018.4 |
| 20260501194608 | 18 | 286 | 1.6 | 1.6 | 0.00 | 0.00 | 0.00 | 31 | 1018.6 |
| 20260501194104 | 18 | 348 | 1.6 | 4.8 | 0.00 | 0.00 | 0.00 | 34 | 1018.7 |
| 20260501193602 | 17 | 203 | 1.6 | 1.6 | 0.00 | 0.00 | 0.00 | 33 | 1018.8 |
| 20260501193100 | 18 | 358 | 4.8 | 6.4 | 0.00 | 0.00 | 0.00 | 28 | 1018.9 |
| 20260501192556 | 19 | 283 | 4.8 | 6.4 | 0.00 | 0.00 | 0.00 | 36 | 1019.0 |
| 20260501192054 | 18 | 283 | 1.6 | 4.8 | 0.00 | 0.00 | 0.00 | 37 | 1018.9 |
| 20260501191551 | 18 | 49 | 4.8 | 8.0 | 0.00 | 0.00 | 0.00 | 31 | 1019.2 |
| 20260501191048 | 18 | 290 | 8.0 | 11.3 | 0.00 | 0.00 | 0.00 | 31 | 1019.0 |
| 20260501190544 | 18 | 270 | 6.4 | 6.4 | 0.00 | 0.00 | 0.00 | 30 | 1018.9 |
| 20260501190040 | 17 | 230 | 1.6 | 1.6 | 0.00 | 0.00 | 0.00 | 32 | 1019.2 |
| 20260501185536 | 18 | 122 | 8.0 | 8.0 | 0.00 | 0.00 | 0.00 | 29 | 1019.3 |
| 20260501185032 | 17 | 267 | 3.2 | 4.8 | 0.00 | 0.00 | 0.00 | 41 | 1019.4 |
| 20260501184529 | 18 | 63 | 4.8 | 4.8 | 0.00 | 0.00 | 0.00 | 30 | 1019.4 |
| 20260501184028 | 19 | 248 | 3.2 | 4.8 | 0.00 | 0.00 | 0.00 | 32 | 1019.4 |
| 20260501183526 | 18 | 266 | 0.0 | 0.0 | 0.00 | 0.00 | 0.00 | 34 | 1019.2 |
| 20260501183022 | 18 | 311 | 3.2 | 4.8 | 0.00 | 0.00 | 0.00 | 34 | 1019.3 |
| 20260501182519 | 17 | 274 | 0.0 | 0.0 | 0.00 | 0.00 | 0.00 | 36 | 1019.6 |
| 20260501182016 | 17 | 274 | 6.4 | 11.3 | 0.00 | 0.00 | 0.00 | 32 | 1019.3 |
| 20260501181513 | 17 | 279 | 1.6 | 1.6 | 0.00 | 0.00 | 0.00 | 31 | 1019.5 |
| 20260501181010 | 17 | 262 | 3.2 | 4.8 | 0.00 | 0.00 | 0.00 | 40 | 1019.5 |
| 20260501180508 | 17 | 295 | 6.4 | 8.0 | 0.00 | 0.00 | 0.00 | 34 | 1019.6 |
| 20260501180003 | 17 | 285 | 3.2 | 6.4 | 0.00 | 0.00 | 0.00 | 31 | 1019.5 |
| 20260501175500 | 17 | 78 | 8.0 | 8.0 | 0.00 | 0.00 | 0.00 | 32 | 1019.8 |
| 20260501174956 | 18 | 278 | 3.2 | 4.8 | 0.00 | 0.00 | 0.00 | 30 | 1019.7 |
| 20260501174454 | 17 | 264 | 0.0 | 0.0 | 0.00 | 0.00 | 0.00 | 35 | 1019.8 |
| 20260501173952 | 17 | 315 | 8.0 | 8.0 | 0.00 | 0.00 | 0.00 | 33 | 1019.5 |
| 20260501173449 | 17 | 272 | 3.2 | 4.8 | 0.00 | 0.00 | 0.00 | 37 | 1019.7 |
| 20260501172944 | 17 | 303 | 4.8 | 6.4 | 0.00 | 0.00 | 0.00 | 35 | 1019.8 |
| 20260501172441 | 17 | 284 | 3.2 | 6.4 | 0.00 | 0.00 | 0.00 | 36 | 1019.7 |
| 20260501171936 | 17 | 265 | 1.6 | 1.6 | 0.00 | 0.00 | 0.00 | 36 | 1019.9 |
| 20260501171432 | 18 | 85 | 4.8 | 8.0 | 0.00 | 0.00 | 0.00 | 36 | 1020.0 |
| 20260501170929 | 17 | 174 | 1.6 | 1.6 | 0.00 | 0.00 | 0.00 | 36 | 1019.6 |
| 20260501170426 | 17 | 354 | 1.6 | 1.6 | 0.00 | 0.00 | 0.00 | 40 | 1019.7 |
| 20260501165924 | 17 | 297 | 0.0 | 0.0 | 0.00 | 0.00 | 0.00 | 36 | 1019.6 |
| 20260501165422 | 17 | 345 | 4.8 | 6.4 | 0.00 | 0.00 | 0.00 | 35 | 1019.6 |
| 20260501164919 | 16 | 182 | 4.8 | 6.4 | 0.00 | 0.00 | 0.00 | 32 | 1020.0 |
| 20260501164417 | 16 | 70 | 6.4 | 8.0 | 0.00 | 0.00 | 0.00 | 35 | 1019.7 |
| 20260501163913 | 16 | 95 | 3.2 | 4.8 | 0.00 | 0.00 | 0.00 | 40 | 1019.8 |
| 20260501163409 | 16 | 191 | 11.3 | 12.9 | 0.00 | 0.00 | 0.00 | 40 | 1019.7 |
| 20260501162906 | 16 | 169 | 9.7 | 16.1 | 0.00 | 0.00 | 0.00 | 42 | 1019.7 |
| 20260501162403 | 16 | 37 | 1.6 | 4.8 | 0.00 | 0.00 | 0.00 | 41 | 1019.9 |
| 20260501161859 | 16 | 161 | 1.6 | 1.6 | 0.00 | 0.00 | 0.00 | 43 | 1019.6 |
| 20260501161356 | 16 | 62 | 6.4 | 8.0 | 0.00 | 0.00 | 0.00 | 43 | 1019.7 |
| 20260501160853 | 16 | 319 | 3.2 | 6.4 | 0.00 | 0.00 | 0.00 | 41 | 1019.8 |
| 20260501160349 | 16 | 173 | 3.2 | 4.8 | 0.00 | 0.00 | 0.00 | 42 | 1019.5 |
| 20260501155848 | 16 | 304 | 3.2 | 4.8 | 0.00 | 0.00 | 0.00 | 45 | 1019.6 |
| 20260501155344 | 16 | 244 | 4.8 | 6.4 | 0.00 | 0.00 | 0.00 | 46 | 1019.5 |
| 20260501154840 | 16 | 183 | 3.2 | 4.8 | 0.00 | 0.00 | 0.00 | 48 | 1019.5 |
| 20260501154338 | 15 | 25 | 0.0 | 1.6 | 0.00 | 0.00 | 0.00 | 46 | 1019.7 |
| 20260501153835 | 16 | 341 | 4.8 | 6.4 | 0.00 | 0.00 | 0.00 | 53 | 1019.5 |
| 20260501153333 | 15 | 206 | 0.0 | 1.6 | 0.00 | 0.00 | 0.00 | 51 | 1019.6 |
| 20260501152828 | 15 | 302 | 4.8 | 6.4 | 0.00 | 0.00 | 0.00 | 52 | 1019.4 |
| 20260501152326 | 15 | 84 | 3.2 | 6.4 | 0.00 | 0.00 | 0.00 | 58 | 1019.7 |
| 20260501151823 | 15 | 74 | 3.2 | 4.8 | 0.00 | 0.00 | 0.00 | 57 | 1019.5 |
| 20260501151319 | 15 | 68 | 3.2 | 4.8 | 0.00 | 0.00 | 0.00 | 55 | 1019.5 |
| 20260501150815 | 14 | 228 | 1.6 | 4.8 | 0.00 | 0.00 | 0.00 | 55 | 1019.5 |
| 20260501150312 | 14 | 75 | 11.3 | 12.9 | 0.00 | 0.00 | 0.00 | 54 | 1019.4 |
| 20260501145808 | 14 | 179 | 4.8 | 6.4 | 0.00 | 0.00 | 0.00 | 60 | 1019.6 |